Location: Carrer del Canonge
(41.4901°N, 2.2931°E)
Time: 14:23:51
(UTC+00:00)

CZ-2D R/B - Pass Details

Date: 18 September 2020
Orbit: 520 x 539 km, 97.4° (Epoch: 28 October)

Event Time Altitude Azimuth Distance (km) Brightness Sun altitude
Rises 18:13:24 0° 165° (SSE) 2,678 6.6 -4.4°
Reaches altitude 10° 18:15:30 10° 165° (SSE) 1,793 5.7 -4.8°
Maximum altitude 18:19:23 86° 76° (ENE) 547 3.3 -5.5°
Drops below altitude 10° 18:23:18 10° 349° (N) 1,808 6.2 -6.2°
Sets 18:25:26 0° 349° (N) 2,703 7.1 -6.6°
